Flag for Australia Weather past 2 weeks in Melbourne, Victoria, Australia

Now
59 °F

Partly sunny.


Feels Like: 58 °F
Forecast: 56 / 74 °F
Wind: 6 mph from Southwest

Location: Melbourne Airport

Current Time: Mar 3, 2015 at 8:26:40 AM

Latest Report: Mar 3, 2015 at 8:00 AM


Visibility: N/A

Pressure: 30.01 "Hg

Humidity: 88%

Dew point: 55 °F

Location of MelbourneLocation

Historic Weather in Melbourne — Graph

°F

Melbourne temperature yesterday

Maximum temperature yesterday: 75 °F (at 4:30 PM)
Minimum temperature yesterday: 48 °F (at 7:00 AM)
Average temperature yesterday: 62 °F

Past Weeks' High & Low Weather Summary

 TemperatureHumidityPressure
High99 °F (Feb 21, 2:00 PM)100% (Feb 23, 2:00 PM)30.18 "Hg (Feb 23, 2:00 PM)
Low48 °F (Mar 2, 7:00 AM)18% (Feb 21, 4:00 PM)29.47 "Hg (Feb 28, 8:00 PM)
Average68 °F66%29.95 "Hg
* Reported Feb 16 7:00 AM — Mar 3 7:00 AM, Melbourne, Weather by CustomWeather, © 2015

Note: Actual official high and low records may vary slightly from our data, if they occured in-between our weather recording intervals... More about our weather records

Advertising

Melbourne weather history for previous 24 hours

 ConditionsComfort  
Time TempWeatherWind HumidityBarometerVisibility
7:00 AM
Tue, Mar 3
59 °FPassing clouds.5 mph88%30.01 "HgN/A
6:00 AM61 °FClear.6 mph83%29.98 "Hg10 mi
5:00 AM61 °FClear.7 mph83%29.98 "Hg10 mi
4:00 AM61 °FClear.7 mph83%29.98 "Hg10 mi
3:30 AM61 °FClear.6 mph83%29.98 "Hg10 mi
3:00 AM61 °FClear.6 mph77%29.98 "Hg10 mi
2:30 AM63 °FClear.No wind73%29.98 "Hg10 mi
2:00 AM61 °FClear.6 mph77%30.01 "Hg10 mi
1:30 AM63 °FClear.6 mph77%29.98 "Hg10 mi
1:00 AM61 °FClear.6 mph83%29.98 "Hg10 mi
12:30 AM63 °FPassing clouds.6 mph77%29.98 "HgN/A
12:00 AM63 °FClear.8 mph77%30.01 "Hg10 mi
11:30 PM
Mon, Mar 2
63 °FClear.6 mph73%29.98 "Hg10 mi
11:00 PM63 °FClear.6 mph73%29.98 "Hg10 mi
10:30 PM63 °FClear.6 mph77%29.98 "Hg10 mi
10:00 PM64 °FClear.5 mph68%30.01 "Hg10 mi
9:30 PM64 °FClear.7 mph68%29.98 "Hg10 mi
9:00 PM64 °FClear.5 mph68%29.98 "Hg10 mi
8:30 PM66 °FClear.6 mph60%29.95 "Hg10 mi
8:00 PM68 °FClear.9 mph49%29.95 "Hg10 mi
7:30 PM68 °FPassing clouds.8 mph49%29.95 "HgN/A
7:00 PM72 °FSunny.9 mph44%29.92 "Hg10 mi
6:30 PM72 °FSunny.8 mph44%29.92 "Hg10 mi
6:00 PM73 °FSunny.8 mph38%29.92 "Hg10 mi
5:30 PM73 °FSunny.9 mph38%29.92 "Hg10 mi
5:00 PM73 °FSunny.9 mph41%29.92 "Hg10 mi
4:30 PM75 °FSunny.9 mph36%29.92 "Hg10 mi
4:00 PM73 °FSunny.8 mph38%29.95 "Hg10 mi
3:30 PM72 °FSunny.10 mph41%29.95 "Hg10 mi
3:00 PM72 °FSunny.10 mph38%29.98 "Hg10 mi
2:30 PM72 °FSunny.10 mph36%29.98 "Hg10 mi
2:00 PM72 °FSunny.10 mph38%29.98 "Hg10 mi
1:30 PM70 °FPassing clouds.8 mph40%29.98 "HgN/A
1:00 PM72 °FPassing clouds.6 mph36%30.01 "HgN/A
12:30 PM70 °FSunny.6 mph38%30.01 "Hg10 mi
12:00 PM66 °FSunny.6 mph43%30.04 "Hg10 mi
11:30 AM64 °FSunny.3 mph49%30.04 "Hg10 mi
11:00 AM63 °FPassing clouds.6 mph49%30.07 "HgN/A
10:30 AM61 °FPartly sunny.7 mph55%30.07 "HgN/A
10:00 AM61 °FSunny.8 mph59%30.07 "Hg10 mi
9:30 AM59 °FPassing clouds.5 mph63%30.09 "HgN/A
9:00 AM57 °FScattered clouds.3 mph72%30.07 "HgN/A
8:30 AM55 °FScattered clouds.5 mph82%30.07 "HgN/A
8:00 AM52 °FScattered clouds.5 mph88%30.07 "HgN/A
Weather by CustomWeather, © 2015

See weather overviewHow to use our weather pages